Find Starlink 31458

NORAD ID: 59501 Int'l Des: 2024-071 Owner: SPXS Country: US Constellation: starlink operational
LEOCIRCULAR

現在のビュー

3D地球を読み込み中...

About Starlink 31458

Starlink 31458 (NORAD 59501) is a starlink constellation satellite (v2 mini) launched Apr 13, 2024 by SPXS of US. It operates in LEO, CIRCULAR orbit with a mass of 730.00 kg.

次回通過

Passes for default location (London). Set your location on the main map for personalized predictions.

高度履歴

Loading altitude history...

軌道要素

1 59501U 24071T 26264.17137938 -.00000114 00000-0 53922-5 0 9996
2 59501 43.0023 315.6235 0001310 275.6773 84.3929 15.27576418138105
Epoch: Sep 21, 2026 • Age: 7 hours

現在のステータス

高度 483.2 km
遠地点 / 近地点 N/A
速度 7.63 km/s
衛星直下点 22.41°N, 57.84°W
打ち上げ日 Apr 13, 2024
運用期間 2.4 years
タイプ internet

技術仕様

分類 Payload
質量 730.00 kg
乾燥質量 700.00 kg
長さ 0.30 m
スパン 29.00 m
形状 ? Box + pan
製造者 SPXS
バスタイプ Starlink V2M
フェーズステータス In Orbit
所有者/国 SPXS/US

Most Searched